User: anonymous   Login
Location: Mentone
(34.5413°N, 85.5351°W)
Time: 20:01:46
(UTC-05:00)
Language:

S-56A Canister/Altair - Orbit

View from above orbital plane
View from above orbital plane
View from above satellite
View from above satellite

Ground track
Ground track

The orbit data is extracted from the following two-line orbital elements,

1 00082U 61004B   16205.06340177  .00000002  00000-0  54226-4 0  9998
2 00082  38.8533  74.8691 1166170  45.8004 323.2741 12.25767843632873
Epoch (UTC): 23 July 2016 01:31:17
Eccentricity: 0.1166170
inclination: 38.8533°
perigee height: 641 km
apogee height: 2494 km
right ascension of ascending node: 74.8691°
argument of perigee: 45.8004°
revolutions per day: 12.25767843
mean anomaly at epoch: 323.2741°
orbit number at epoch: 63287

The dashed part of the orbit path shows where the satellite is in the earth's shadow,  

DLR